TimeEST,TemperatureF,Dew PointF,Humidity,Sea Level PressureIn,VisibilityMPH,Wind Direction,Wind SpeedMPH,Gust SpeedMPH,PrecipitationIn,Events,Conditions,WindDirDegrees,DateUTC
12:52 AM,43.0,36.0,76,30.33,10.0,ENE,8.1,-,N/A,,Clear,70,2012-11-17 05:52:00
1:52 AM,42.1,35.1,76,30.34,10.0,ENE,8.1,-,N/A,,Clear,70,2012-11-17 06:52:00
2:52 AM,42.1,35.1,76,30.34,10.0,ENE,9.2,-,N/A,,Clear,70,2012-11-17 07:52:00
3:52 AM,43.0,35.1,74,30.34,10.0,ENE,10.4,-,N/A,,Clear,60,2012-11-17 08:52:00
4:52 AM,42.1,34.0,73,30.36,10.0,NE,10.4,-,N/A,,Clear,50,2012-11-17 09:52:00
5:52 AM,41.0,34.0,76,30.38,10.0,ENE,9.2,-,N/A,,Clear,60,2012-11-17 10:52:00
6:52 AM,41.0,33.1,73,30.39,10.0,NE,9.2,-,N/A,,Clear,50,2012-11-17 11:52:00
7:52 AM,42.1,33.1,70,30.40,10.0,NE,9.2,-,N/A,,Clear,50,2012-11-17 12:52:00
8:52 AM,46.0,30.9,56,30.42,10.0,ENE,17.3,-,N/A,,Clear,70,2012-11-17 13:52:00
9:52 AM,48.9,30.0,48,30.43,10.0,ENE,23.0,28.8,N/A,,Clear,70,2012-11-17 14:52:00
10:52 AM,52.0,28.0,40,30.44,10.0,ENE,18.4,27.6,N/A,,Clear,70,2012-11-17 15:52:00
11:52 AM,55.0,28.9,37,30.41,10.0,East,13.8,21.9,N/A,,Clear,90,2012-11-17 16:52:00
12:52 PM,55.9,30.0,37,30.38,10.0,ENE,8.1,-,N/A,,Clear,60,2012-11-17 17:52:00
1:52 PM,57.9,30.0,35,30.36,10.0,ENE,11.5,-,N/A,,Clear,60,2012-11-17 18:52:00
2:52 PM,60.1,32.0,35,30.34,10.0,ENE,9.2,-,N/A,,Clear,70,2012-11-17 19:52:00
3:52 PM,59.0,32.0,36,30.33,10.0,NE,10.4,18.4,N/A,,Clear,50,2012-11-17 20:52:00
4:52 PM,57.9,32.0,37,30.35,10.0,ENE,10.4,-,N/A,,Clear,60,2012-11-17 21:52:00
5:52 PM,55.9,32.0,40,30.35,10.0,ENE,10.4,-,N/A,,Clear,60,2012-11-17 22:52:00
6:52 PM,54.0,32.0,43,30.36,10.0,ENE,10.4,-,N/A,,Clear,60,2012-11-17 23:52:00
7:52 PM,52.0,30.0,43,30.37,10.0,ENE,10.4,-,N/A,,Clear,60,2012-11-18 00:52:00
8:52 PM,50.0,30.0,46,30.39,10.0,ENE,9.2,-,N/A,,Clear,70,2012-11-18 01:52:00
9:52 PM,46.9,28.9,50,30.40,10.0,East,10.4,-,N/A,,Clear,80,2012-11-18 02:52:00
10:52 PM,45.0,28.9,53,30.38,10.0,East,9.2,-,N/A,,Clear,90,2012-11-18 03:52:00
11:52 PM,46.9,26.1,44,30.37,10.0,ENE,12.7,-,N/A,,Clear,70,2012-11-18 04:52:00